Year,Month,Day,Hour,Minute,Value (Times are PST for windspeed in km/hr)
2011,09,25,00,00,0.00
2011,09,25,00,01,0.00
2011,09,25,00,02,0.00
2011,09,25,00,03,0.00
2011,09,25,00,04,0.00
2011,09,25,00,05,0.00
2011,09,25,00,06,0.00
2011,09,25,00,07,0.00
2011,09,25,00,08,0.00
2011,09,25,00,09,0.10
2011,09,25,00,10,0.00
2011,09,25,00,11,0.00
2011,09,25,00,12,0.00
2011,09,25,00,13,0.00
2011,09,25,00,14,0.00
2011,09,25,00,15,0.00
2011,09,25,00,16,0.00
2011,09,25,00,17,0.00
2011,09,25,00,18,0.00
2011,09,25,00,19,0.00
2011,09,25,00,20,0.00
2011,09,25,00,21,0.00
2011,09,25,00,22,0.00
2011,09,25,00,23,0.00
2011,09,25,00,24,0.00
2011,09,25,00,25,0.00
2011,09,25,00,26,0.00
2011,09,25,00,27,0.00
2011,09,25,00,28,0.00
2011,09,25,00,29,0.00
2011,09,25,00,30,0.00
2011,09,25,00,31,0.00
2011,09,25,00,32,0.00
2011,09,25,00,33,0.00
2011,09,25,00,34,0.00
2011,09,25,00,35,0.00
2011,09,25,00,36,0.00
2011,09,25,00,37,0.00
2011,09,25,00,38,0.00
2011,09,25,00,39,0.00
2011,09,25,00,40,0.00
2011,09,25,00,41,0.00
2011,09,25,00,42,0.00
2011,09,25,00,43,0.00
2011,09,25,00,44,0.00
2011,09,25,00,45,0.00
2011,09,25,00,46,0.00
2011,09,25,00,47,0.00
2011,09,25,00,48,0.00
2011,09,25,00,49,0.00
2011,09,25,00,50,0.00
2011,09,25,00,51,0.00
2011,09,25,01,24,0.00
2011,09,25,01,25,1.80
2011,09,25,01,26,4.20
2011,09,25,01,27,3.60
2011,09,25,01,28,0.10
2011,09,25,01,29,2.30
2011,09,25,01,30,3.60
2011,09,25,01,31,0.60
2011,09,25,01,32,0.00
2011,09,25,01,33,3.90
2011,09,25,01,34,2.40
2011,09,25,01,35,0.00
2011,09,25,01,36,0.00
2011,09,25,01,37,0.00
2011,09,25,01,38,0.00
2011,09,25,01,39,0.00
2011,09,25,01,40,0.00
2011,09,25,01,41,0.00
2011,09,25,01,42,0.30
2011,09,25,01,43,0.00
2011,09,25,01,44,0.00
2011,09,25,01,45,0.00
2011,09,25,01,46,0.00
2011,09,25,01,47,0.00
2011,09,25,01,48,0.00
2011,09,25,01,49,0.00
2011,09,25,01,50,0.00
2011,09,25,01,51,0.00
2011,09,25,01,52,0.00
2011,09,25,01,53,0.00
2011,09,25,01,54,0.00
2011,09,25,01,55,0.00
2011,09,25,01,56,0.10
2011,09,25,01,57,0.20
2011,09,25,01,58,0.90
2011,09,25,01,59,1.40
2011,09,25,02,00,0.80
2011,09,25,02,01,1.90
2011,09,25,02,02,1.20
2011,09,25,02,03,0.10
2011,09,25,02,04,0.00
2011,09,25,02,05,1.00
2011,09,25,02,06,0.00
2011,09,25,02,07,0.00
2011,09,25,02,08,0.00
2011,09,25,02,09,0.00
2011,09,25,02,10,0.00
2011,09,25,02,11,0.10
2011,09,25,02,12,0.00
2011,09,25,02,13,0.00
2011,09,25,02,14,0.00
2011,09,25,02,15,0.00
2011,09,25,02,16,0.00
2011,09,25,02,17,0.50
2011,09,25,02,18,0.20
2011,09,25,02,19,0.10
2011,09,25,02,20,0.20
2011,09,25,02,21,1.50
2011,09,25,02,22,4.00
2011,09,25,02,23,7.20
2011,09,25,02,24,4.20
2011,09,25,02,25,5.60
2011,09,25,02,26,1.60
2011,09,25,02,27,0.20
2011,09,25,02,28,0.20
2011,09,25,02,29,3.40
2011,09,25,02,30,4.00
2011,09,25,02,31,1.60
2011,09,25,02,32,0.20
2011,09,25,02,33,0.00
2011,09,25,02,34,0.00
2011,09,25,02,35,0.00
2011,09,25,02,36,0.00
2011,09,25,02,37,0.00
2011,09,25,02,38,0.00
2011,09,25,02,39,0.10
2011,09,25,02,40,4.20
2011,09,25,02,41,6.10
2011,09,25,02,42,1.40
2011,09,25,02,43,1.80
2011,09,25,02,44,5.80
2011,09,25,02,45,1.80
2011,09,25,02,46,0.30
2011,09,25,02,47,1.10
2011,09,25,02,48,1.40
2011,09,25,02,49,0.50
2011,09,25,02,50,1.70
2011,09,25,02,51,2.70
2011,09,25,02,52,2.70
2011,09,25,02,53,0.00
2011,09,25,02,54,2.20
2011,09,25,02,55,1.40
2011,09,25,02,56,7.00
2011,09,25,02,57,1.00
2011,09,25,02,58,0.70
2011,09,25,02,59,2.00
2011,09,25,03,00,1.90
2011,09,25,03,01,8.60
2011,09,25,03,02,4.70
2011,09,25,03,03,9.90
2011,09,25,03,04,8.30
2011,09,25,03,05,10.00
2011,09,25,03,06,11.50
2011,09,25,03,07,6.00
2011,09,25,03,08,4.40
2011,09,25,03,09,13.60
2011,09,25,03,10,17.80
2011,09,25,03,11,11.50
2011,09,25,03,12,7.50
2011,09,25,03,13,12.80
2011,09,25,03,14,10.60
2011,09,25,03,15,11.70
2011,09,25,03,16,10.60
2011,09,25,03,17,14.70
2011,09,25,03,18,19.80
2011,09,25,03,19,18.20
2011,09,25,03,20,16.20
2011,09,25,03,21,27.90
2011,09,25,03,22,45.10
2011,09,25,03,23,45.10
2011,09,25,03,24,45.10
2011,09,25,03,25,45.10
2011,09,25,03,26,45.10
2011,09,25,03,27,45.10
2011,09,25,03,28,45.10
2011,09,25,03,29,45.10
2011,09,25,03,30,45.10
2011,09,25,03,31,45.10
2011,09,25,03,48,17.70
2011,09,25,03,49,16.10
2011,09,25,03,50,19.60
2011,09,25,03,51,12.70
2011,09,25,03,52,10.70
2011,09,25,03,53,13.90
2011,09,25,03,54,14.70
2011,09,25,03,55,16.60
2011,09,25,03,56,16.10
2011,09,25,03,57,20.30
2011,09,25,03,58,19.30
2011,09,25,03,59,23.70
2011,09,25,04,00,15.80
2011,09,25,04,01,21.90
2011,09,25,04,02,12.50
2011,09,25,04,03,19.40
2011,09,25,04,04,16.10
2011,09,25,04,05,16.30
2011,09,25,04,06,15.10
2011,09,25,04,07,20.20
2011,09,25,04,08,21.80
2011,09,25,04,09,12.60
2011,09,25,04,10,15.10
2011,09,25,04,11,6.50
2011,09,25,04,12,8.40
2011,09,25,04,13,8.90
2011,09,25,04,14,13.30
2011,09,25,04,15,11.80
2011,09,25,04,16,22.40
2011,09,25,04,17,19.10
2011,09,25,04,18,21.50
2011,09,25,04,19,15.50
2011,09,25,04,20,19.00
2011,09,25,04,21,21.70
2011,09,25,04,22,17.40
2011,09,25,04,23,14.30
2011,09,25,04,24,20.00
2011,09,25,04,25,15.60
2011,09,25,04,26,16.70
2011,09,25,04,27,14.60
2011,09,25,04,28,14.70
2011,09,25,04,29,14.90
2011,09,25,04,30,15.00
2011,09,25,04,31,12.90
2011,09,25,04,32,11.70
2011,09,25,04,33,8.40
2011,09,25,04,34,11.50
2011,09,25,04,35,9.50
2011,09,25,04,36,8.90
2011,09,25,04,37,6.80
2011,09,25,04,38,11.50
2011,09,25,04,39,4.20
2011,09,25,04,40,5.30
2011,09,25,04,41,5.80
2011,09,25,04,42,7.20
2011,09,25,04,43,8.20
2011,09,25,04,44,8.20
2011,09,25,04,45,7.80
2011,09,25,04,46,8.10
2011,09,25,04,47,7.30
2011,09,25,04,48,7.60
2011,09,25,04,49,8.00
2011,09,25,04,50,6.60
2011,09,25,04,51,2.30
2011,09,25,04,52,6.30
2011,09,25,04,53,7.70
2011,09,25,04,54,8.10
2011,09,25,04,55,8.90
2011,09,25,04,56,7.80
2011,09,25,04,57,6.10
2011,09,25,04,58,6.10
2011,09,25,04,59,9.60
2011,09,25,05,00,9.90
2011,09,25,05,01,6.50
2011,09,25,05,02,7.50
2011,09,25,05,03,7.10
2011,09,25,05,04,9.00
2011,09,25,05,05,9.20
2011,09,25,05,06,4.40
2011,09,25,05,07,2.30
2011,09,25,05,08,5.00
2011,09,25,05,09,8.50
2011,09,25,05,10,11.00
2011,09,25,05,11,5.70
2011,09,25,05,12,5.40
2011,09,25,05,13,5.60
2011,09,25,05,14,1.40
2011,09,25,05,15,3.00
2011,09,25,05,16,0.60
2011,09,25,05,17,0.10
2011,09,25,05,18,0.10
2011,09,25,05,19,1.00
2011,09,25,05,20,8.70
2011,09,25,05,21,6.90
2011,09,25,05,22,7.10
2011,09,25,05,23,4.60
2011,09,25,05,24,7.10
2011,09,25,05,25,6.40
2011,09,25,05,26,5.30
2011,09,25,05,27,2.80
2011,09,25,05,28,2.90
2011,09,25,05,29,7.50
2011,09,25,05,30,1.40
2011,09,25,05,31,0.10
2011,09,25,05,32,0.00
2011,09,25,05,33,0.00
2011,09,25,05,34,0.10
2011,09,25,05,35,0.20
2011,09,25,05,36,0.00
2011,09,25,05,37,0.60
2011,09,25,05,38,2.80
2011,09,25,05,39,0.20
2011,09,25,05,40,0.10
2011,09,25,05,41,0.00
2011,09,25,05,42,0.00
2011,09,25,05,43,0.00
2011,09,25,05,44,0.30
2011,09,25,05,45,1.80
2011,09,25,05,46,2.80
2011,09,25,05,47,5.10
2011,09,25,05,48,2.50
2011,09,25,05,49,0.60
2011,09,25,05,50,2.80
2011,09,25,05,51,2.30
2011,09,25,05,52,5.60
2011,09,25,05,53,4.50
2011,09,25,05,54,6.50
2011,09,25,05,55,6.50
2011,09,25,05,56,9.10
2011,09,25,05,57,6.00
2011,09,25,05,58,4.90
2011,09,25,05,59,4.10
2011,09,25,06,00,3.80
2011,09,25,06,01,2.30
2011,09,25,06,02,0.30
2011,09,25,06,03,0.60
2011,09,25,06,04,1.20
2011,09,25,06,05,3.30
2011,09,25,06,06,2.80
2011,09,25,06,07,5.20
2011,09,25,06,08,8.70
2011,09,25,06,09,5.80
2011,09,25,06,10,2.10
2011,09,25,06,11,0.30
2011,09,25,06,12,0.70
2011,09,25,06,13,0.50
2011,09,25,06,14,0.00
2011,09,25,06,15,0.00
2011,09,25,06,16,0.00
2011,09,25,06,17,0.20
2011,09,25,06,18,0.10
2011,09,25,06,19,0.00
2011,09,25,06,20,0.30
2011,09,25,06,21,4.00
2011,09,25,06,22,1.60
2011,09,25,06,23,0.10
2011,09,25,06,24,0.00
2011,09,25,06,25,0.00
2011,09,25,06,26,2.80
2011,09,25,06,27,1.00
2011,09,25,06,28,2.10
2011,09,25,06,29,0.60
2011,09,25,06,30,0.20
2011,09,25,06,31,0.40
2011,09,25,06,32,2.30
2011,09,25,06,33,6.40
2011,09,25,06,34,1.90
2011,09,25,06,35,2.90
2011,09,25,06,36,2.60
2011,09,25,06,37,0.20
2011,09,25,06,38,1.20
2011,09,25,06,39,0.00
2011,09,25,06,40,0.00
2011,09,25,06,41,0.90
2011,09,25,06,42,0.20
2011,09,25,06,43,0.00
2011,09,25,06,44,1.00
2011,09,25,06,45,1.40
2011,09,25,06,46,1.20
2011,09,25,06,47,2.40
2011,09,25,06,48,4.50
2011,09,25,06,49,3.10
2011,09,25,06,50,0.00
2011,09,25,06,51,0.00
2011,09,25,06,52,0.30
2011,09,25,06,53,0.10
2011,09,25,06,54,2.10
2011,09,25,06,55,5.20
2011,09,25,06,56,4.10
2011,09,25,06,57,1.90
2011,09,25,06,58,0.10
2011,09,25,06,59,0.10
2011,09,25,07,00,0.00
2011,09,25,07,01,0.00
2011,09,25,07,02,0.00
2011,09,25,07,03,0.10
2011,09,25,07,04,2.70
2011,09,25,07,05,3.90
2011,09,25,07,06,2.00
2011,09,25,07,07,0.60
2011,09,25,07,08,4.20
2011,09,25,07,09,4.40
2011,09,25,07,10,2.80
2011,09,25,07,11,0.00
2011,09,25,07,12,0.70
2011,09,25,07,13,5.40
2011,09,25,07,14,2.10
2011,09,25,07,15,0.40
2011,09,25,07,16,0.00
2011,09,25,07,17,0.00
2011,09,25,07,18,0.20
2011,09,25,07,19,0.00
2011,09,25,07,20,0.00
2011,09,25,07,21,1.30
2011,09,25,07,22,0.30
2011,09,25,07,23,0.00
2011,09,25,07,24,0.10
2011,09,25,07,25,0.00
2011,09,25,07,26,0.00
2011,09,25,07,27,0.00
2011,09,25,07,28,0.00
2011,09,25,07,29,0.00
2011,09,25,07,30,0.00
2011,09,25,07,31,0.00
2011,09,25,07,32,0.00
2011,09,25,07,33,0.00
2011,09,25,07,34,0.00
2011,09,25,07,35,0.00
2011,09,25,07,36,0.00
2011,09,25,07,37,0.00
2011,09,25,07,38,0.00
2011,09,25,07,39,0.00
2011,09,25,07,40,0.00
2011,09,25,07,41,0.00
2011,09,25,07,42,0.00
2011,09,25,07,43,0.10
2011,09,25,07,44,0.00
2011,09,25,07,45,0.10
2011,09,25,07,46,0.00
2011,09,25,07,47,0.00
2011,09,25,07,48,0.00
2011,09,25,07,49,0.00
2011,09,25,07,50,0.00
2011,09,25,07,51,0.00
2011,09,25,07,52,0.00
2011,09,25,07,53,0.00
2011,09,25,07,54,0.00
2011,09,25,07,55,0.00
2011,09,25,07,56,0.00
2011,09,25,07,57,0.00
2011,09,25,07,58,0.00
2011,09,25,07,59,0.00
2011,09,25,08,00,0.00
2011,09,25,08,01,1.50
2011,09,25,08,02,1.70
2011,09,25,08,03,0.00
2011,09,25,08,04,1.80
2011,09,25,08,05,2.50
2011,09,25,08,06,4.50
2011,09,25,08,07,4.60
2011,09,25,08,08,2.10
2011,09,25,08,09,6.20
2011,09,25,08,10,4.20
2011,09,25,08,11,3.30
2011,09,25,08,12,3.30
2011,09,25,08,13,3.80
2011,09,25,08,14,6.00
2011,09,25,08,15,4.30
2011,09,25,08,16,2.60
2011,09,25,08,17,0.20
2011,09,25,08,18,0.10
2011,09,25,08,19,0.00
2011,09,25,08,20,0.80
2011,09,25,08,21,0.00
2011,09,25,08,22,0.30
2011,09,25,08,23,0.00
2011,09,25,08,24,0.00
2011,09,25,08,25,1.10
2011,09,25,08,26,0.10
2011,09,25,08,27,0.50
2011,09,25,08,28,0.10
2011,09,25,08,29,0.10
2011,09,25,08,30,0.00
2011,09,25,08,31,0.00
2011,09,25,08,32,0.00
2011,09,25,08,33,0.10
2011,09,25,08,34,0.00
2011,09,25,08,35,0.00
2011,09,25,08,36,2.20
2011,09,25,08,37,2.70
2011,09,25,08,38,1.20
2011,09,25,08,39,6.00
2011,09,25,08,40,6.80
2011,09,25,08,41,0.40
2011,09,25,08,42,0.00
2011,09,25,08,43,0.10
2011,09,25,08,44,0.00
2011,09,25,08,45,0.00
2011,09,25,08,46,3.30
2011,09,25,08,47,1.10
2011,09,25,08,48,1.40
2011,09,25,08,49,5.50
2011,09,25,08,50,3.80
2011,09,25,08,51,4.90
2011,09,25,08,52,3.00
2011,09,25,08,53,5.80
2011,09,25,08,54,5.20
2011,09,25,08,55,6.40
2011,09,25,08,56,4.10
2011,09,25,08,57,4.80
2011,09,25,08,58,6.30
2011,09,25,08,59,2.80
2011,09,25,09,00,5.00
2011,09,25,09,01,8.00
2011,09,25,09,02,6.80
2011,09,25,09,03,7.80
2011,09,25,09,04,5.80
2011,09,25,09,05,7.00
2011,09,25,09,06,4.60
2011,09,25,09,07,1.30
2011,09,25,09,08,0.00
2011,09,25,09,09,0.20
2011,09,25,09,10,3.50
2011,09,25,09,11,1.80
2011,09,25,09,12,0.00
2011,09,25,09,13,0.30
2011,09,25,09,14,0.00
2011,09,25,09,15,0.00
2011,09,25,09,16,0.00
2011,09,25,09,17,0.00
2011,09,25,09,18,0.00
2011,09,25,09,19,0.00
2011,09,25,09,20,0.00
2011,09,25,09,21,0.10
2011,09,25,09,22,3.30
2011,09,25,09,23,0.50
2011,09,25,09,24,0.30
2011,09,25,09,25,0.20
2011,09,25,09,26,2.10
2011,09,25,09,27,2.50
2011,09,25,09,28,2.20
2011,09,25,09,29,5.20
2011,09,25,09,30,6.60
2011,09,25,09,31,5.00
2011,09,25,09,32,4.50
2011,09,25,09,33,4.30
2011,09,25,09,34,3.10
2011,09,25,09,35,3.60
2011,09,25,09,36,10.20
2011,09,25,09,37,5.50
2011,09,25,09,38,7.80
2011,09,25,09,39,8.90
2011,09,25,09,40,0.80
2011,09,25,09,41,2.10
2011,09,25,09,42,1.80
2011,09,25,09,43,0.30
2011,09,25,09,44,6.30
2011,09,25,09,45,9.90
2011,09,25,09,46,7.60
2011,09,25,09,47,5.10
2011,09,25,09,48,11.70
2011,09,25,09,49,6.90
2011,09,25,09,50,3.40
2011,09,25,09,51,12.90
2011,09,25,09,52,7.80
2011,09,25,09,53,8.40
2011,09,25,09,54,5.40
2011,09,25,09,55,5.30
2011,09,25,09,56,11.10
2011,09,25,09,57,8.40
2011,09,25,09,58,10.80
2011,09,25,09,59,10.10
2011,09,25,10,00,8.00
2011,09,25,10,01,10.90
2011,09,25,10,02,11.80
2011,09,25,10,03,8.00
2011,09,25,10,04,4.10
2011,09,25,10,05,7.30
2011,09,25,10,06,6.40
2011,09,25,10,07,7.20
2011,09,25,10,08,7.60
2011,09,25,10,09,7.80
2011,09,25,10,10,9.00
2011,09,25,10,11,11.10
2011,09,25,10,12,12.20
2011,09,25,10,13,18.40
2011,09,25,10,14,14.30
2011,09,25,10,15,12.30
2011,09,25,10,16,13.00
2011,09,25,10,17,7.70
2011,09,25,10,18,8.50
2011,09,25,10,19,7.70
2011,09,25,10,20,5.20
2011,09,25,10,21,9.10
2011,09,25,10,22,5.90
2011,09,25,10,23,4.40
2011,09,25,10,24,1.90
2011,09,25,10,25,8.50
2011,09,25,10,26,10.70
2011,09,25,10,27,5.20
2011,09,25,10,28,6.80
2011,09,25,10,29,2.30
2011,09,25,10,30,5.50
2011,09,25,10,31,3.70
2011,09,25,10,32,0.40
2011,09,25,10,33,2.60
2011,09,25,10,34,0.10
2011,09,25,10,35,1.10
2011,09,25,10,36,2.50
2011,09,25,10,37,6.00
2011,09,25,10,38,0.60
2011,09,25,10,39,2.40
2011,09,25,10,40,3.10
2011,09,25,10,41,2.30
2011,09,25,10,42,3.70
2011,09,25,10,43,1.20
2011,09,25,10,44,2.90
2011,09,25,10,45,0.70
2011,09,25,10,46,4.70
2011,09,25,10,47,4.10
2011,09,25,10,48,3.20
2011,09,25,10,49,5.10
2011,09,25,10,50,4.90
2011,09,25,10,51,6.10
2011,09,25,10,52,4.10
2011,09,25,10,53,4.90
2011,09,25,10,54,8.40
2011,09,25,10,55,10.30
2011,09,25,10,56,6.70
2011,09,25,10,57,2.40
2011,09,25,10,58,3.00
2011,09,25,10,59,0.20
2011,09,25,11,00,0.40
2011,09,25,11,01,3.00
2011,09,25,11,02,0.10
2011,09,25,11,03,0.00
2011,09,25,11,04,0.00
2011,09,25,11,05,0.00
2011,09,25,11,06,0.30
2011,09,25,11,07,1.30
2011,09,25,11,08,0.00
2011,09,25,11,09,0.00
2011,09,25,11,10,0.30
2011,09,25,11,11,1.10
2011,09,25,11,12,0.90
2011,09,25,11,13,3.60
2011,09,25,11,14,4.70
2011,09,25,11,15,3.10
2011,09,25,11,16,0.90
2011,09,25,11,17,0.40
2011,09,25,11,18,0.10
2011,09,25,11,19,0.00
2011,09,25,11,20,0.00
2011,09,25,11,21,0.00
2011,09,25,11,22,0.10
2011,09,25,11,23,0.20
2011,09,25,11,24,0.10
2011,09,25,11,25,0.10
2011,09,25,11,26,0.60
2011,09,25,11,27,0.30
2011,09,25,11,28,0.00
2011,09,25,11,29,0.00
2011,09,25,11,30,0.20
2011,09,25,11,31,1.80
2011,09,25,11,32,1.30
2011,09,25,11,33,0.40
2011,09,25,11,34,1.10
2011,09,25,11,35,0.00
2011,09,25,11,36,0.00
2011,09,25,11,37,0.00
2011,09,25,11,38,0.00
2011,09,25,11,39,0.00
2011,09,25,11,40,0.00
2011,09,25,11,41,0.00
2011,09,25,11,42,0.00
2011,09,25,11,43,0.00
2011,09,25,11,44,0.70
2011,09,25,11,45,0.80
2011,09,25,11,46,1.80
2011,09,25,11,47,0.10
2011,09,25,11,48,1.80
2011,09,25,11,49,2.30
2011,09,25,11,50,0.10
2011,09,25,11,51,0.10
2011,09,25,11,52,0.00
2011,09,25,11,53,1.20
2011,09,25,11,54,0.00
2011,09,25,11,55,0.00
2011,09,25,11,56,0.10
2011,09,25,11,57,0.00
2011,09,25,11,58,0.10
2011,09,25,11,59,0.30
2011,09,25,12,00,0.20
2011,09,25,12,01,2.00
2011,09,25,12,02,0.30
2011,09,25,12,03,0.10
2011,09,25,12,04,0.20
2011,09,25,12,05,1.90
2011,09,25,12,06,0.20
2011,09,25,12,07,0.10
2011,09,25,12,08,1.90
2011,09,25,12,09,0.60
2011,09,25,12,10,1.60
2011,09,25,12,11,1.90
2011,09,25,12,12,1.30
2011,09,25,12,13,0.10
2011,09,25,12,14,0.00
2011,09,25,12,15,0.00
2011,09,25,12,16,0.40
2011,09,25,12,17,0.00
2011,09,25,12,18,0.10
2011,09,25,12,19,0.00
2011,09,25,12,20,0.00
2011,09,25,12,21,0.00
2011,09,25,12,22,0.00
2011,09,25,12,23,0.00
2011,09,25,12,24,0.00
2011,09,25,12,25,0.00
2011,09,25,12,26,0.00
2011,09,25,12,27,0.00
2011,09,25,12,28,0.00
2011,09,25,12,29,0.90
2011,09,25,12,30,0.00
2011,09,25,12,31,0.00
2011,09,25,12,32,0.20
2011,09,25,12,33,2.60
2011,09,25,12,34,1.90
2011,09,25,12,35,0.20
2011,09,25,12,36,0.00
2011,09,25,12,37,0.00
2011,09,25,12,38,0.00
2011,09,25,12,39,0.00
2011,09,25,12,40,0.10
2011,09,25,12,41,0.00
2011,09,25,12,42,0.00
2011,09,25,12,43,0.00
2011,09,25,12,44,0.00
2011,09,25,12,45,1.20
2011,09,25,12,46,0.20
2011,09,25,12,47,0.30
2011,09,25,12,48,0.50
2011,09,25,12,49,1.40
2011,09,25,12,50,0.80
2011,09,25,12,51,1.90
2011,09,25,12,52,0.70
2011,09,25,12,53,1.50
2011,09,25,12,54,0.20
2011,09,25,12,55,0.00
2011,09,25,12,56,1.00
2011,09,25,12,57,3.00
2011,09,25,12,58,0.80
2011,09,25,12,59,0.10
2011,09,25,13,00,1.40
2011,09,25,13,01,1.00
2011,09,25,13,02,0.50
2011,09,25,13,03,3.20
2011,09,25,13,04,1.20
2011,09,25,13,05,0.50
2011,09,25,13,06,2.60
2011,09,25,13,07,1.20
2011,09,25,13,08,4.20
2011,09,25,13,09,2.10
2011,09,25,13,10,1.00
2011,09,25,13,11,2.20
2011,09,25,13,12,5.00
2011,09,25,13,13,3.40
2011,09,25,13,14,6.20
2011,09,25,13,15,9.30
2011,09,25,13,16,6.40
2011,09,25,13,17,3.90
2011,09,25,13,18,4.70
2011,09,25,13,19,2.80
2011,09,25,13,20,2.30
2011,09,25,13,21,0.70
2011,09,25,13,22,4.40
2011,09,25,13,23,0.90
2011,09,25,13,24,0.40
2011,09,25,13,25,0.00
2011,09,25,13,26,0.00
2011,09,25,13,27,1.00
2011,09,25,13,28,7.30
2011,09,25,13,29,4.60
2011,09,25,13,30,0.60
2011,09,25,13,31,1.00
2011,09,25,13,32,3.20
2011,09,25,13,33,9.60
2011,09,25,13,34,10.60
2011,09,25,13,35,8.60
2011,09,25,13,36,11.80
2011,09,25,13,37,16.10
2011,09,25,13,38,11.40
2011,09,25,13,39,18.40
2011,09,25,13,40,15.40
2011,09,25,13,41,22.80
2011,09,25,13,42,21.80
2011,09,25,13,43,18.50
2011,09,25,13,44,19.30
2011,09,25,13,45,21.50
2011,09,25,13,46,11.90
2011,09,25,13,47,14.40
2011,09,25,13,48,19.70
2011,09,25,13,49,12.20
2011,09,25,13,50,14.60
2011,09,25,13,51,11.90
2011,09,25,13,52,8.80
2011,09,25,13,53,12.30
2011,09,25,13,54,12.40
2011,09,25,13,55,13.40
2011,09,25,13,56,11.30
2011,09,25,13,57,11.80
2011,09,25,13,58,13.90
2011,09,25,13,59,14.60
2011,09,25,14,00,7.60
2011,09,25,14,01,11.40
2011,09,25,14,02,10.40
2011,09,25,14,03,10.30
2011,09,25,14,04,14.90
2011,09,25,14,05,10.60
2011,09,25,14,06,10.70
2011,09,25,14,07,23.90
2011,09,25,14,08,16.40
2011,09,25,14,09,18.20
2011,09,25,14,10,18.10
2011,09,25,14,11,15.60
2011,09,25,14,12,9.90
2011,09,25,14,13,14.70
2011,09,25,14,14,13.80
2011,09,25,14,15,19.10
2011,09,25,14,16,15.00
2011,09,25,14,17,10.20
2011,09,25,14,18,22.30
2011,09,25,14,19,18.50
2011,09,25,14,20,12.30
2011,09,25,14,21,23.00
2011,09,25,14,22,16.00
2011,09,25,14,23,13.60
2011,09,25,14,24,16.70
2011,09,25,14,25,12.50
2011,09,25,14,26,12.50
2011,09,25,14,27,14.60
2011,09,25,14,28,20.80
2011,09,25,14,29,16.30
2011,09,25,14,30,16.50
2011,09,25,14,31,17.90
2011,09,25,14,32,19.20
2011,09,25,14,33,23.00
2011,09,25,14,34,15.00
2011,09,25,14,35,22.30
2011,09,25,14,36,17.10
2011,09,25,14,37,23.10
2011,09,25,14,38,22.90
2011,09,25,14,39,21.90
2011,09,25,14,40,16.50
2011,09,25,14,41,16.90
2011,09,25,14,42,11.60
2011,09,25,14,43,10.00
2011,09,25,14,44,13.00
2011,09,25,14,45,15.60
2011,09,25,14,46,11.60
2011,09,25,14,47,14.10
2011,09,25,14,48,19.70
2011,09,25,14,49,19.20
2011,09,25,14,50,15.80
2011,09,25,14,51,19.00
2011,09,25,14,52,16.50
2011,09,25,14,53,16.40
2011,09,25,14,54,12.80
2011,09,25,14,55,17.50
2011,09,25,14,56,18.20
2011,09,25,14,57,18.40
2011,09,25,14,58,16.40
2011,09,25,14,59,18.70
2011,09,25,15,00,17.40
2011,09,25,15,01,16.90
2011,09,25,15,02,19.80
2011,09,25,15,03,20.20
2011,09,25,15,04,13.60
2011,09,25,15,05,16.80
2011,09,25,15,06,17.10
2011,09,25,15,07,12.30
2011,09,25,15,08,16.60
2011,09,25,15,09,12.70
2011,09,25,15,10,14.60
2011,09,25,15,11,12.90
2011,09,25,15,12,18.00
2011,09,25,15,13,15.60
2011,09,25,15,14,22.90
2011,09,25,15,15,26.10
2011,09,25,15,16,20.80
2011,09,25,15,17,18.30
2011,09,25,15,18,19.50
2011,09,25,15,19,26.80
2011,09,25,15,20,10.80
2011,09,25,15,21,9.80
2011,09,25,15,22,10.00
2011,09,25,15,23,23.30
2011,09,25,15,24,9.10
2011,09,25,15,25,21.10
2011,09,25,15,26,23.00
2011,09,25,15,27,16.80
2011,09,25,15,28,12.70
2011,09,25,15,29,25.30
2011,09,25,15,30,15.90
2011,09,25,15,31,14.60
2011,09,25,15,32,20.20
2011,09,25,15,33,15.30
2011,09,25,15,34,19.00
2011,09,25,15,35,15.20
2011,09,25,15,36,18.70
2011,09,25,15,37,21.50
2011,09,25,15,38,20.80
2011,09,25,15,39,19.60
2011,09,25,15,40,14.80
2011,09,25,15,41,13.60
2011,09,25,15,42,14.60
2011,09,25,15,43,14.70
2011,09,25,15,44,10.60
2011,09,25,15,45,18.60
2011,09,25,15,46,10.30
2011,09,25,15,47,13.60
2011,09,25,15,48,14.00
2011,09,25,15,49,12.80
2011,09,25,15,50,12.50
2011,09,25,15,51,16.20
2011,09,25,15,52,10.40
2011,09,25,15,53,10.30
2011,09,25,15,54,11.60
2011,09,25,15,55,12.50
2011,09,25,15,56,11.90
2011,09,25,15,57,12.10
2011,09,25,15,58,14.10
2011,09,25,15,59,8.90
2011,09,25,16,00,7.80
2011,09,25,16,01,10.60
2011,09,25,16,02,21.10
2011,09,25,16,03,23.30
2011,09,25,16,04,20.00
2011,09,25,16,05,22.10
2011,09,25,16,06,10.80
2011,09,25,16,07,16.90
2011,09,25,16,08,13.30
2011,09,25,16,09,13.50
2011,09,25,16,10,8.20
2011,09,25,16,11,25.50
2011,09,25,16,12,14.50
2011,09,25,16,13,9.00
2011,09,25,16,14,18.00
2011,09,25,16,15,12.40
2011,09,25,16,16,10.90
2011,09,25,16,17,15.70
2011,09,25,16,18,12.60
2011,09,25,16,19,20.00
2011,09,25,16,20,12.30
2011,09,25,16,21,11.70
2011,09,25,16,22,11.90
2011,09,25,16,23,11.40
2011,09,25,16,24,18.00
2011,09,25,16,25,13.70
2011,09,25,16,26,16.60
2011,09,25,16,27,7.50
2011,09,25,16,28,5.80
2011,09,25,16,29,10.80
2011,09,25,16,30,31.30
2011,09,25,16,31,17.30
2011,09,25,16,32,14.30
2011,09,25,16,33,10.50
2011,09,25,16,34,11.70
2011,09,25,16,35,16.90
2011,09,25,16,36,24.20
2011,09,25,16,37,16.70
2011,09,25,16,38,18.30
2011,09,25,16,39,14.00
2011,09,25,16,40,19.20
2011,09,25,16,41,14.30
2011,09,25,16,42,13.90
2011,09,25,16,43,17.30
2011,09,25,16,44,25.40
2011,09,25,16,45,21.10
2011,09,25,16,46,8.20
2011,09,25,16,47,7.30
2011,09,25,16,48,14.90
2011,09,25,16,49,19.10
2011,09,25,16,50,17.10
2011,09,25,16,51,16.20
2011,09,25,16,52,15.20
2011,09,25,16,53,21.20
2011,09,25,16,54,13.60
2011,09,25,16,55,4.00
2011,09,25,16,56,7.80
2011,09,25,16,57,14.20
2011,09,25,16,58,14.40
2011,09,25,16,59,14.30
2011,09,25,17,00,12.00
2011,09,25,17,01,18.30
2011,09,25,17,02,14.20
2011,09,25,17,03,12.40
2011,09,25,17,04,15.00
2011,09,25,17,05,15.30
2011,09,25,17,06,17.40
2011,09,25,17,07,14.10
2011,09,25,17,08,12.40
2011,09,25,17,09,13.80
2011,09,25,17,10,8.60
2011,09,25,17,11,14.90
2011,09,25,17,12,15.00
2011,09,25,17,13,14.60
2011,09,25,17,14,16.30
2011,09,25,17,15,22.60
2011,09,25,17,16,14.80
2011,09,25,17,17,8.70
2011,09,25,17,18,12.50
2011,09,25,17,19,13.60
2011,09,25,17,20,8.90
2011,09,25,17,21,10.80
2011,09,25,17,22,10.10
2011,09,25,17,23,9.60
2011,09,25,17,24,20.90
2011,09,25,17,25,6.00
2011,09,25,17,26,7.00
2011,09,25,17,27,8.90
2011,09,25,17,28,15.40
2011,09,25,17,29,17.30
2011,09,25,17,30,23.60
2011,09,25,17,31,13.60
2011,09,25,17,32,19.50
2011,09,25,17,33,15.00
2011,09,25,17,34,13.90
2011,09,25,17,35,17.60
2011,09,25,17,36,8.80
2011,09,25,17,37,8.60
2011,09,25,17,38,19.90
2011,09,25,17,39,19.30
2011,09,25,17,40,19.00
2011,09,25,17,41,20.20
2011,09,25,17,42,14.90
2011,09,25,17,43,20.60
2011,09,25,17,44,18.40
2011,09,25,17,45,12.60
2011,09,25,17,46,18.00
2011,09,25,17,47,11.80
2011,09,25,17,48,10.90
2011,09,25,17,49,12.10
2011,09,25,17,50,8.40
2011,09,25,17,51,11.60
2011,09,25,17,52,11.40
2011,09,25,17,53,6.20
2011,09,25,17,54,11.90
2011,09,25,17,55,9.60
2011,09,25,17,56,13.10
2011,09,25,17,57,8.10
2011,09,25,17,58,7.30
2011,09,25,17,59,7.90
2011,09,25,18,00,15.40
2011,09,25,18,01,10.30
2011,09,25,18,02,12.30
2011,09,25,18,03,19.50
2011,09,25,18,04,17.10
2011,09,25,18,05,10.00
2011,09,25,18,06,12.60
2011,09,25,18,07,12.10
2011,09,25,18,08,5.40
2011,09,25,18,09,5.80
2011,09,25,18,10,10.90
2011,09,25,18,11,21.40
2011,09,25,18,12,6.40
2011,09,25,18,13,8.50
2011,09,25,18,14,19.30
2011,09,25,18,15,13.90
2011,09,25,18,16,16.80
2011,09,25,18,17,16.90
2011,09,25,18,18,10.80
2011,09,25,18,19,12.00
2011,09,25,18,20,15.70
2011,09,25,18,21,11.90
2011,09,25,18,22,10.60
2011,09,25,18,23,11.90
2011,09,25,18,24,11.90
2011,09,25,18,25,9.30
2011,09,25,18,26,9.00
2011,09,25,18,27,15.10
2011,09,25,18,28,8.90
2011,09,25,18,29,7.40
2011,09,25,18,30,12.70
2011,09,25,18,31,9.20
2011,09,25,18,32,7.70
2011,09,25,18,33,11.10
2011,09,25,18,34,12.50
2011,09,25,18,35,11.50
2011,09,25,18,36,7.70
2011,09,25,18,37,11.70
2011,09,25,18,38,9.40